GFSFLT1_con_lsi_000.txt.gz
Lid_Strength_Index
12 12 13 13 13 14 14 14 15 15 15 16 16 17 18 19 19 20 20 20 20 20 20 20 20 20 20 20 19 19 19 18
12 12 13 13 14 14 14 15 15 16 16 17 17 18 19 19 20 20 20 21 21 21 21 21 21 21 21 21 21 21 21 20
12 12 13 13 14 14 14 15 15 16 17 17 18 19 19 20 20 20 21 21 21 22 22 22 22 22 22 22 22 22 23 22
12 13 13 13 14 15 15 15 15 17 17 18 19 19 20 20 21 21 21 22 22 22 23 23 22 23 22 22 23 23 23 23
12 13 13 14 14 15 15 15 16 17 17 18 19 19 20 21 21 22 22 22 23 23 23 23 23 23 23 23 23 23 23 22
12 12 12 14 14 14 14 15 15 17 18 19 20 20 20 21 22 22 23 23 23 23 23 24 24 24 24 23 23 23 22 21
11 13 13 14 14 15 15 15 16 18 19 19 20 21 21 23 23 23 23 23 23 24 24 24 23 21 20 20 21 21 21 21
11 12 13 13 14 15 15 15 17 18 19 20 21 22 23 23 23 23 23 23 24 24 24 24 23 21 20 19 20 21 21 21
11 11 12 13 15 15 15 16 18 19 20 21 22 23 23 23 23 23 23 24 24 24 23 24 23 20 20 19 20 21 21 20
10 10 11 14 15 16 17 18 19 20 21 21 21 22 23 23 24 23 23 24 23 24 24 25 24 22 20 19 21 21 20 19
11 11 14 16 16 16 18 19 19 20 20 21 20 22 23 23 23 23 23 24 24 24 24 24 25 22 20 18 21 22 20 19
12 13 14 16 16 17 19 20 19 19 20 21 21 22 22 24 23 23 23 23 24 24 24 24 23 23 19 18 19 20 19 19
14 14 16 17 17 18 20 19 20 21 22 22 23 23 23 24 25 25 24 25 25 24 24 21 20 20 19 18 17 16 20 19
16 17 17 17 17 19 19 20 21 22 24 25 25 25 25 26 26 25 25 24 24 23 23 22 21 20 19 18 17 17 17 18
18 19 20 20 18 19 20 21 23 24 25 26 26 26 26 25 24 24 24 24 23 23 23 23 22 22 21 20 21 17 17 17
17 16 16 19 19 20 21 22 23 24 25 26 26 26 25 24 24 23 22 22 23 23 23 24 24 23 18 18 18 18 17 22
16 16 17 19 19 21 22 23 24 24 26 26 26 25 24 24 24 20 20 18 19 19 21 23 20 18 16 16 15 15 16 27
16 16 16 19 19 22 23 23 23 23 25 25 25 25 25 25 25 24 21 18 19 20 19 20 19 18 17 16 16 17 20 32
14 14 17 18 18 21 23 23 23 22 24 24 24 24 24 24 24 24 25 25 25 21 20 20 19 18 17 16 21 29 26 31
12 14 18 18 20 21 21 22 23 23 24 23 23 23 23 22 23 24 25 26 26 26 21 23 20 18 18 19 29 33 33 31

GFSFLT1_con_lsi_003.txt.gz
Lid_Strength_Index
13 14 14 13 14 14 14 14 15 15 15 16 16 16 16 17 18 18 18 19 19 20 20 20 20 20 20 20 20 20 19 19
12 12 12 13 14 14 14 15 15 15 15 16 16 16 17 17 18 18 19 19 20 20 20 20 20 20 21 21 21 21 22 21
12 12 14 14 14 15 15 15 15 16 16 16 17 17 18 18 19 19 19 20 20 20 20 21 21 21 22 22 22 22 22 22
13 13 13 13 14 14 14 15 15 16 17 17 18 18 18 19 20 19 20 20 20 20 21 21 22 22 22 22 22 22 22 22
11 13 13 14 14 14 15 15 16 16 17 17 17 18 18 20 20 20 20 21 21 21 22 22 22 22 22 22 22 22 22 22
12 12 13 13 14 15 15 16 16 16 17 17 18 18 19 20 20 21 21 21 21 22 22 22 23 22 22 22 22 22 22 22
11 12 12 13 13 14 14 16 15 16 16 17 18 20 20 20 21 21 22 22 22 23 23 23 22 19 18 20 21 21 21 21
11 11 12 13 13 15 15 16 16 16 17 18 19 20 20 20 21 21 22 22 22 22 22 22 21 17 17 17 18 20 20 20
11 11 12 13 14 14 16 16 16 17 17 19 19 20 21 21 21 21 22 22 22 22 21 21 21 17 16 16 18 19 20 20
9 10 11 12 13 15 16 16 16 17 18 19 20 21 22 21 21 21 21 22 21 21 22 21 21 16 16 16 18 19 19 19
10 11 12 13 16 16 16 16 17 17 18 20 20 21 22 21 22 22 22 22 21 22 22 21 23 17 17 16 19 22 20 19
13 13 14 16 16 16 17 17 16 18 19 20 20 21 21 22 22 23 22 21 22 22 22 23 23 22 17 15 18 20 21 19
13 14 15 16 17 17 17 18 19 19 21 21 21 22 23 23 24 23 23 23 23 24 23 22 21 20 17 16 15 16 20 21
12 14 15 17 16 16 18 19 20 21 21 22 23 24 24 24 25 25 24 24 24 23 23 22 20 20 17 16 16 16 18 18
11 11 11 16 16 15 18 19 20 22 22 23 24 25 25 24 25 24 25 23 23 23 23 22 22 22 21 21 20 17 18 19
12 13 12 13 15 15 18 19 20 21 23 24 24 25 25 24 24 24 22 21 22 22 21 22 22 22 19 19 20 20 19 28
13 13 13 12 14 15 18 19 21 22 23 24 25 25 25 25 24 20 20 19 18 18 20 20 18 16 15 16 16 18 18 29
16 14 13 14 15 16 18 20 21 22 24 24 25 25 25 24 23 23 19 17 17 17 18 17 16 16 16 16 18 18 23 32
20 19 17 16 15 15 18 20 21 21 23 24 24 24 24 23 22 21 21 22 21 17 17 16 15 15 16 18 22 27 28 35
22 21 19 17 14 14 19 20 21 22 23 24 24 22 23 22 22 22 20 21 22 21 18 17 15 15 17 21 26 30 32 34

GFSFLT1_con_lsi_006.txt.gz
Lid_Strength_Index
14 14 14 14 14 14 14 14 14 15 15 15 15 16 16 17 17 17 18 18 19 19 19 19 20 20 20 20 19 20 19 19
13 14 14 15 15 14 14 15 15 15 15 15 16 16 17 18 18 18 18 18 18 19 19 20 20 20 20 20 20 20 20 20
12 13 14 14 14 14 14 14 14 15 15 16 16 17 17 17 18 18 18 19 19 19 19 20 20 20 20 21 20 21 21 21
11 12 11 12 13 13 14 14 14 15 16 16 17 17 17 17 18 18 18 19 19 19 20 20 20 20 20 21 21 21 21 21
10 11 11 12 12 13 14 14 15 15 16 17 17 16 16 17 18 18 18 19 19 19 20 21 21 21 21 21 22 22 22 22
10 10 10 12 12 13 13 14 14 15 16 16 16 16 16 18 18 18 18 19 19 20 21 21 21 21 21 21 22 22 21 21
10 11 12 12 11 13 13 14 15 15 16 16 17 17 17 18 18 19 19 20 20 20 21 22 21 18 17 20 21 20 20 20
11 11 11 11 12 13 13 14 16 15 16 17 17 18 19 18 19 19 20 20 21 21 21 21 21 16 15 16 19 19 19 19
10 10 10 10 11 13 15 16 16 16 17 17 18 19 19 19 19 19 20 21 21 21 21 21 21 15 14 15 17 18 18 18
10 10 11 12 12 13 17 17 17 17 17 17 18 19 20 20 19 19 20 21 21 20 21 21 21 14 14 14 18 19 19 18
10 10 11 11 14 16 17 18 17 16 16 18 18 18 19 19 19 20 20 20 21 22 21 21 22 14 13 15 18 20 19 19
11 11 11 12 14 14 17 18 18 18 20 20 19 19 19 19 19 20 20 21 21 22 22 22 22 18 15 14 19 20 21 20
13 12 11 11 14 14 15 17 20 19 21 21 20 20 20 21 21 21 21 22 23 24 24 22 22 21 16 15 16 17 21 20
13 12 12 10 13 15 13 19 21 20 19 20 22 21 21 21 22 23 22 22 24 24 23 23 22 22 17 15 15 16 19 19
15 15 14 12 12 13 13 17 19 19 20 21 21 22 21 21 22 22 22 22 23 23 23 23 23 22 19 18 17 16 17 18
18 18 18 16 14 12 12 17 18 19 20 21 21 22 22 21 22 21 21 20 22 21 21 22 23 21 19 19 21 21 20 28
20 20 19 19 18 17 14 17 17 19 21 21 22 22 22 22 22 18 19 18 17 17 19 19 18 18 17 16 16 16 17 30
21 22 22 22 22 21 18 15 17 18 19 21 22 23 23 23 24 24 19 17 16 17 17 17 17 15 15 14 14 15 21 30
22 23 24 24 24 22 20 18 17 17 17 20 21 22 23 23 23 22 22 21 20 17 17 16 15 14 14 14 16 23 26 31
24 24 24 25 24 21 20 18 16 18 18 20 21 21 22 22 22 22 21 21 21 20 18 16 15 15 15 17 25 27 28 31

GFSFLT1_con_lsi_009.txt.gz
Lid_Strength_Index
13 14 14 15 15 15 15 15 15 15 15 15 15 15 15 17 17 17 17 17 18 18 18 18 18 19 19 20 20 20 20 19
12 13 13 14 15 14 15 15 15 15 15 15 15 15 16 17 16 17 17 18 18 18 18 19 19 19 19 20 20 20 20 20
11 11 12 13 14 14 14 15 14 15 15 15 15 16 16 16 17 17 17 18 18 18 18 19 19 19 19 20 20 20 21 20
11 11 11 11 12 13 14 14 14 15 16 16 16 16 16 16 17 17 17 18 18 18 19 19 19 19 19 20 20 20 20 21
12 12 11 11 11 12 12 13 15 15 16 16 16 16 15 16 17 17 18 18 18 18 18 19 19 20 20 20 20 21 21 21
13 12 11 12 11 11 11 13 15 15 15 15 15 15 16 16 17 18 18 17 18 19 19 19 19 20 20 20 21 21 22 21
13 13 13 11 12 12 12 12 15 15 15 14 15 16 16 16 17 18 18 18 18 19 19 19 19 16 16 19 21 21 21 22
12 12 12 12 11 12 13 13 13 14 14 15 17 16 17 17 18 18 18 18 19 19 19 19 19 15 15 17 20 21 21 21
11 12 12 11 11 11 12 13 14 14 14 16 16 16 17 18 19 19 18 19 19 19 19 19 19 15 15 16 20 20 20 20
12 12 11 11 11 12 13 13 14 16 16 17 17 17 19 19 18 18 19 19 19 18 19 19 19 15 14 16 20 19 20 20
12 12 12 12 11 12 12 13 14 16 15 17 18 19 18 18 19 18 18 18 18 19 19 19 20 15 14 16 19 20 20 19
14 14 13 12 12 13 12 13 14 17 19 20 20 20 20 18 19 19 19 19 20 20 20 20 19 16 13 14 19 20 20 20
15 15 15 15 14 14 14 12 13 17 19 20 21 20 20 20 21 19 19 20 21 21 22 21 20 16 13 13 16 16 20 20
16 17 16 15 16 17 16 15 13 13 16 18 18 20 19 19 20 20 20 21 22 22 22 22 21 18 14 13 15 16 20 19
17 18 18 17 16 17 16 15 17 15 15 17 19 19 20 20 21 20 21 21 21 22 21 22 21 21 17 16 15 16 18 17
18 19 19 18 18 18 18 18 19 18 16 17 18 19 20 20 20 20 19 19 20 20 20 22 22 21 18 17 16 17 18 23
19 20 20 20 20 20 20 21 21 21 19 16 17 19 20 20 21 17 17 17 16 16 18 19 18 17 16 15 15 16 17 23
19 20 21 22 22 21 21 21 22 22 20 17 17 18 20 21 21 22 19 16 16 15 15 16 17 16 15 15 15 15 17 24
20 21 21 22 23 22 22 21 21 21 20 19 16 18 19 20 21 21 21 20 20 15 16 16 15 15 14 15 15 17 23 26
22 23 23 23 23 21 21 21 21 20 19 18 16 17 18 19 21 21 21 20 19 18 16 16 15 14 14 14 19 25 26 27

GFSFLT1_con_lsi_012.txt.gz
Lid_Strength_Index
12 13 14 15 15 16 16 15 15 16 15 15 15 15 15 16 16 16 16 16 17 17 17 18 18 18 18 19 19 19 19 19
12 12 12 13 14 15 15 16 16 16 16 16 16 16 16 16 16 16 16 16 17 17 17 18 18 18 18 18 19 19 20 20
12 12 12 12 11 12 14 15 15 16 16 16 16 17 17 17 16 16 16 16 16 17 18 18 18 18 18 19 19 19 20 20
13 13 13 13 12 12 12 13 14 14 16 16 16 17 16 16 16 17 16 16 16 17 17 18 18 18 18 19 19 20 20 20
13 13 13 13 13 13 13 13 13 14 16 16 16 15 15 15 16 16 16 17 17 17 17 17 18 18 19 19 19 19 20 20
12 12 13 13 13 13 13 13 13 14 14 14 15 15 15 15 15 16 17 17 17 18 18 18 18 18 19 19 19 20 20 20
12 13 13 12 13 14 13 13 13 14 14 14 14 16 16 16 16 17 17 17 17 18 18 19 18 16 15 17 19 19 20 21
13 14 13 13 12 13 13 12 13 13 13 14 14 15 16 17 17 17 17 17 18 18 18 18 18 16 14 15 18 19 20 20
14 14 13 14 14 13 13 13 13 14 14 14 15 16 16 18 17 17 18 18 18 18 18 18 18 15 14 15 18 19 20 20
15 14 14 14 15 14 15 14 14 13 14 14 14 15 15 15 16 17 18 18 17 17 17 18 18 15 14 15 19 19 20 20
13 14 15 15 14 16 17 16 16 15 14 15 16 17 17 16 17 15 16 17 17 17 17 17 18 15 13 15 19 20 20 20
13 14 13 13 14 15 16 17 16 16 17 15 14 16 16 17 19 18 17 17 18 19 18 18 18 18 13 13 18 19 20 20
13 14 13 13 14 15 16 16 16 16 15 16 15 15 16 18 19 20 18 18 20 22 22 20 19 17 13 12 17 17 20 20
15 15 14 15 15 17 16 18 18 18 18 18 17 16 17 17 18 18 19 20 20 21 21 21 20 18 14 12 14 16 19 19
15 15 16 16 16 17 17 18 20 21 21 20 20 18 15 17 16 18 19 20 20 21 21 21 21 19 17 14 14 16 18 17
14 15 16 16 17 18 18 19 21 21 22 22 21 20 17 16 16 17 16 17 19 19 19 20 21 20 17 15 16 17 19 18
15 15 16 17 18 19 19 20 22 23 22 22 21 20 19 17 17 14 14 15 15 14 16 18 17 17 16 14 13 15 16 19
17 17 18 19 20 20 21 21 22 24 24 23 22 21 20 18 18 18 17 14 14 13 13 14 17 16 16 14 13 14 16 20
19 20 21 22 23 22 22 22 23 23 22 22 21 21 20 19 17 17 17 20 18 14 13 13 14 15 15 14 13 16 18 22
23 23 24 24 24 22 22 23 23 22 22 21 20 20 19 18 17 16 17 18 18 18 15 14 13 14 13 13 15 17 24 23

GFSFLT1_con_lsi_015.txt.gz
Lid_Strength_Index
13 13 13 12 12 12 13 13 14 14 14 14 14 14 15 15 15 15 15 15 15 15 15 16 15 16 16 16 16 16 16 16
13 12 12 12 12 13 12 13 13 13 14 15 14 15 15 16 15 15 15 15 16 15 15 16 16 16 16 16 16 16 16 17
13 12 12 12 12 13 12 13 13 13 14 14 14 15 15 15 15 15 15 15 15 16 16 16 16 16 16 16 16 16 17 18
12 12 13 12 12 12 12 13 13 13 14 14 14 14 15 15 15 15 15 15 15 16 16 16 16 16 16 16 16 16 17 17
12 12 12 13 12 12 12 12 13 14 14 14 14 14 14 14 14 15 15 15 15 15 16 16 16 16 17 17 17 17 17 17
11 12 13 13 12 13 13 12 12 14 14 14 14 14 14 14 14 14 15 15 15 16 16 16 16 17 17 17 17 17 17 17
12 12 13 13 13 13 14 14 14 13 13 14 14 14 14 14 14 14 15 15 15 16 16 16 16 14 14 16 17 17 17 18
12 13 13 13 13 15 15 15 15 14 13 14 14 14 15 14 15 15 15 15 15 16 16 16 16 14 13 14 16 17 17 18
11 12 13 12 13 14 14 16 16 15 15 15 15 16 15 15 15 15 15 15 15 15 15 16 16 14 13 13 16 17 17 18
11 12 12 12 13 13 14 15 15 16 16 16 17 17 15 16 16 15 15 15 15 14 15 16 16 14 13 13 15 17 17 17
12 12 12 12 12 13 14 15 15 15 16 17 18 17 17 17 16 16 15 16 15 15 15 15 15 13 12 12 13 16 17 18
12 12 12 12 13 14 14 15 14 15 16 17 18 19 18 17 15 16 16 16 16 16 16 16 15 14 12 12 13 16 17 18
12 12 12 12 14 15 15 14 15 16 17 18 18 19 18 18 18 15 16 18 17 17 17 17 15 15 13 12 11 14 17 18
13 13 13 13 14 15 15 15 17 18 19 19 19 19 19 19 18 16 14 16 17 17 18 17 17 16 13 13 12 13 17 17
14 14 14 13 13 14 15 16 18 20 20 20 20 20 20 19 18 17 15 15 16 16 17 17 18 18 16 15 13 13 15 16
14 14 14 14 14 15 16 17 19 20 20 21 21 21 21 20 19 17 15 14 16 15 16 17 18 17 16 16 15 14 15 17
15 16 16 17 18 18 18 19 21 22 21 21 21 21 21 21 20 16 15 13 12 12 13 16 14 13 13 13 13 12 15 18
18 19 20 21 21 21 21 21 22 23 23 22 22 22 22 21 21 21 17 14 12 11 11 12 12 13 12 12 12 11 14 19
21 23 23 24 24 23 23 24 24 24 24 24 23 23 22 21 21 20 19 18 16 13 12 12 11 11 12 12 12 13 15 18
24 24 24 25 25 24 24 24 25 25 24 24 23 22 22 21 21 20 19 18 16 14 13 13 10 11 11 11 14 14 16 18

GFSFLT1_con_lsi_021.txt.gz
Lid_Strength_Index
10 10 11 10 10 11 11 12 12 11 11 11 11 11 10 10 11 11 11 10 10 10 10 10 11 11 11 12 11 12 12 12
10 11 11 11 11 11 11 12 12 12 11 11 11 11 12 12 11 11 11 11 11 11 11 11 11 11 12 12 12 12 12 12
11 11 12 12 12 12 12 12 12 11 11 11 12 12 13 13 13 12 12 11 12 12 12 12 12 12 12 12 13 13 13 13
13 12 12 13 13 13 13 12 12 12 11 11 11 12 13 14 13 12 12 12 12 13 13 13 13 13 12 13 13 13 13 13
13 12 12 13 13 13 13 12 12 12 12 12 11 11 12 13 14 14 13 13 12 12 12 12 13 13 13 14 14 13 13 13
12 12 11 11 11 12 11 11 11 11 12 12 12 11 12 12 13 12 12 13 12 12 12 13 13 14 14 14 14 14 14 14
11 11 11 10 10 11 10 10 10 11 12 11 12 12 12 12 13 12 12 13 12 13 13 12 14 12 12 12 13 14 15 15
10 10 9 9 9 10 10 9 10 11 11 12 12 12 13 13 14 14 13 13 13 12 12 13 12 11 12 12 13 13 14 14
8 8 8 8 8 9 9 10 10 11 11 12 12 12 13 14 14 14 14 14 14 13 12 12 13 11 10 11 13 13 13 13
6 7 7 8 8 9 10 10 10 11 11 11 11 12 13 15 15 14 14 15 15 14 14 13 12 11 11 11 11 12 13 13
6 6 7 7 8 9 10 10 11 11 11 11 11 12 13 13 14 14 14 14 14 15 14 14 14 11 10 11 11 12 12 12
6 7 8 8 9 11 11 12 11 11 12 12 12 13 13 13 14 14 15 15 16 16 15 15 14 13 10 9 11 12 12 11
8 9 9 10 11 13 13 12 13 14 15 15 16 15 15 16 16 17 17 18 18 17 16 15 13 11 10 9 8 9 11 11
11 12 12 12 12 14 14 15 16 18 19 19 18 18 18 18 18 18 18 18 19 18 18 17 14 13 10 9 9 8 9 10
13 14 14 14 14 15 16 17 19 21 21 20 21 20 20 19 19 20 20 20 19 19 19 18 16 15 12 11 11 10 10 10
14 15 15 15 16 17 17 19 21 21 21 22 21 22 22 21 22 21 20 20 21 20 19 19 19 16 13 13 12 11 11 11
15 16 17 18 18 18 19 20 22 23 23 23 23 23 23 23 22 19 18 17 16 16 16 17 14 13 12 11 11 11 9 10
17 17 18 19 20 20 20 21 23 24 24 24 23 23 23 23 23 24 21 18 17 16 16 15 14 13 12 11 11 10 9 11
18 20 20 21 21 20 20 22 23 24 23 23 22 22 22 22 22 21 22 23 21 18 17 16 15 14 13 12 11 11 11 10
20 21 21 21 21 19 20 22 24 24 23 22 22 21 20 20 20 20 20 20 20 19 18 17 15 14 13 11 13 11 11 9

GFSFLT1_con_lsi_027.txt.gz
Lid_Strength_Index
13 13 13 13 13 13 14 14 14 14 13 14 14 14 15 15 15 15 15 15 15 15 15 15 14 14 15 15 15 15 15 14
13 13 13 13 13 13 12 13 14 14 14 14 13 13 14 14 15 15 15 15 15 15 15 16 15 14 15 15 15 15 15 15
12 13 13 13 13 14 13 13 13 13 13 13 13 14 14 15 15 15 15 15 15 15 16 16 16 15 15 15 14 15 15 14
12 11 12 12 12 12 12 12 12 14 14 14 14 15 15 15 15 15 16 16 16 16 16 16 16 16 15 15 14 13 13 12
12 12 12 12 13 13 13 12 12 13 14 15 15 15 15 14 14 15 15 16 15 15 15 15 16 15 15 15 15 15 14 13
13 13 12 12 12 12 12 12 12 12 13 13 13 13 13 13 13 13 14 14 14 15 15 15 15 15 15 14 14 14 14 13
12 12 12 11 11 11 11 11 11 11 12 11 11 11 11 11 11 12 12 13 13 14 15 16 14 12 11 11 12 12 13 13
11 11 11 11 10 10 10 10 12 13 12 12 11 11 11 11 11 12 12 13 14 14 14 14 14 12 12 11 12 13 12 13
10 10 9 9 9 10 10 11 11 12 13 12 12 12 12 12 13 13 13 13 13 13 14 14 14 12 11 12 13 13 13 13
9 9 9 10 10 11 11 11 11 12 12 13 14 15 15 16 15 15 15 15 15 14 14 15 15 12 12 12 14 15 15 14
9 9 10 11 11 12 13 14 14 13 14 14 15 17 18 18 18 18 18 18 17 17 17 17 17 14 13 13 15 16 16 15
10 11 11 12 13 14 14 15 15 15 16 17 17 19 20 20 20 20 21 20 21 21 20 19 19 18 15 14 16 16 16 16
11 12 12 13 14 15 16 15 17 18 19 19 21 20 20 22 22 22 22 23 23 22 22 20 19 17 16 15 14 14 17 17
14 14 14 16 16 18 17 17 18 22 22 22 21 21 21 22 22 23 23 23 23 22 22 22 20 19 16 16 16 15 17 17
16 18 18 18 16 19 19 18 25 26 22 21 21 21 21 21 22 23 23 24 23 23 22 21 20 18 17 18 19 17 17 17
17 18 18 18 19 21 19 22 23 22 21 20 21 22 22 22 23 23 22 21 21 20 18 18 18 16 13 13 14 14 14 16
17 19 20 22 21 21 23 25 24 21 20 21 21 22 21 23 23 19 18 17 15 14 15 16 13 12 12 11 11 10 11 14
18 19 21 23 22 23 24 26 25 22 21 21 21 22 22 23 23 25 21 17 16 15 14 14 13 12 11 10 10 10 10 14
20 22 24 24 24 22 25 26 24 23 21 22 22 22 22 22 22 22 23 24 22 18 16 14 14 13 12 10 10 13 13 14
23 24 24 26 24 23 24 24 23 22 22 22 22 22 22 22 22 22 22 22 22 21 19 18 16 14 14 14 16 17 16 15

GFSFLT1_con_lsi_030.txt.gz
Lid_Strength_Index
13 13 13 13 13 13 14 15 14 14 14 14 14 14 15 16 16 16 15 15 15 16 15 14 15 15 16 15 15 15 15 15
13 12 13 12 12 13 13 14 14 14 14 14 14 14 15 15 15 16 16 16 16 16 16 15 15 15 15 15 15 15 15 15
13 13 13 13 14 13 13 13 12 14 14 14 14 15 16 16 15 15 15 15 16 16 16 16 16 15 15 15 14 15 16 16
13 13 13 13 13 13 13 13 12 13 13 13 14 14 14 14 13 13 14 14 15 15 16 15 15 15 16 16 16 15 15 15
12 12 12 12 13 13 13 13 13 13 13 14 14 14 14 14 14 14 14 14 14 15 16 15 15 15 15 15 16 15 15 15
13 13 13 13 13 13 13 12 13 13 13 13 13 13 13 13 14 13 14 13 14 14 15 15 15 15 15 15 15 14 14 13
12 13 13 12 12 12 12 12 12 12 13 12 12 12 12 12 12 12 12 13 13 14 14 14 13 12 11 12 14 14 15 14
13 13 12 12 12 12 11 11 13 13 14 13 13 13 12 13 13 13 14 14 14 14 14 14 13 11 11 10 12 14 15 15
13 12 11 11 11 11 11 12 12 13 15 14 13 15 15 15 16 16 16 16 16 16 16 16 15 12 12 12 13 14 14 14
11 11 11 11 11 11 12 12 13 13 13 14 16 17 17 18 18 17 18 18 18 17 18 18 18 15 14 14 16 16 16 15
10 10 11 11 11 13 13 14 15 14 15 16 16 20 19 19 19 19 19 19 19 19 19 20 21 17 16 15 17 18 17 16
10 10 11 12 13 14 15 16 16 16 17 18 18 19 20 20 20 21 21 20 22 21 21 21 20 20 16 14 16 17 17 17
11 12 12 14 15 16 16 16 18 19 20 20 22 21 20 22 21 22 22 23 23 23 22 21 20 18 16 15 13 13 16 17
12 13 14 16 16 17 17 18 19 23 25 25 23 21 20 22 22 22 22 23 23 23 23 22 20 20 16 14 13 13 15 15
16 17 17 16 16 18 19 20 26 29 25 22 22 21 22 20 20 22 23 23 23 23 23 22 20 18 16 16 16 14 14 13
16 17 17 17 18 20 20 24 25 25 22 21 21 23 21 20 21 20 19 19 20 19 19 19 19 17 14 13 14 13 12 11
18 18 18 19 19 21 22 25 27 23 21 21 20 20 20 21 21 17 16 15 14 14 15 16 14 13 12 12 11 11 10 12
18 18 19 20 20 22 25 27 28 26 22 21 20 21 21 22 22 23 20 15 15 15 15 14 14 14 13 12 12 12 12 15
21 20 23 23 23 23 25 28 29 27 22 22 21 22 22 22 22 22 23 23 21 18 16 15 15 14 13 14 15 21 19 19
24 22 23 23 23 25 27 26 28 25 23 24 22 21 22 22 22 23 22 23 23 21 19 19 16 15 16 16 22 22 22 20

GFSFLT1_con_lsi_033.txt.gz
Lid_Strength_Index
14 14 14 14 14 14 15 15 14 14 14 14 14 14 15 15 15 15 15 16 16 16 16 16 16 15 15 15 15 15 16 15
13 13 13 13 14 14 14 14 14 14 14 14 14 14 14 14 14 14 14 15 15 16 16 16 16 17 17 16 16 16 16 15
14 14 14 14 14 14 14 14 14 13 14 14 14 14 14 14 14 14 14 14 14 15 15 15 15 16 17 16 16 16 16 16
14 14 14 14 14 14 14 13 13 13 13 13 14 14 14 14 14 14 14 14 14 14 15 15 15 15 16 16 15 16 16 15
14 14 14 13 14 14 13 13 13 13 13 14 14 14 14 14 14 14 14 14 14 14 14 14 15 15 15 15 15 15 15 14
12 12 13 13 13 14 14 13 13 14 13 14 13 13 14 14 14 14 14 14 14 14 15 14 14 14 14 14 14 15 15 15
12 12 12 12 13 13 13 13 13 13 14 13 14 14 14 14 14 14 14 14 14 14 15 15 14 12 11 12 13 14 14 14
12 12 13 13 12 13 13 13 15 15 16 15 14 14 14 15 15 15 16 15 16 16 16 16 16 13 12 12 14 15 15 15
13 13 13 13 13 13 13 14 14 15 15 15 15 16 16 16 17 17 17 17 17 17 17 17 17 14 14 14 15 16 16 16
12 13 13 13 12 13 13 13 13 13 14 15 16 18 18 20 19 18 18 19 19 18 19 20 19 16 15 15 17 17 17 16
12 12 12 13 12 13 14 14 15 14 15 16 17 21 21 19 20 19 20 19 19 19 20 20 21 17 16 15 17 18 17 16
12 11 11 12 13 14 14 15 15 16 17 18 18 21 21 21 20 21 21 20 22 21 21 21 19 19 16 14 16 17 17 17
11 11 12 13 14 15 16 15 17 18 19 21 23 22 21 26 23 24 23 23 23 23 22 20 18 17 16 15 14 13 16 17
11 12 13 15 15 16 17 17 18 21 23 27 24 22 22 25 23 23 24 24 23 22 22 21 18 18 16 14 14 13 15 14
14 14 16 17 16 18 18 19 25 23 24 23 24 24 24 21 20 22 23 22 21 22 21 20 18 16 16 16 16 14 14 13
13 14 16 17 18 20 20 21 22 23 22 22 23 24 23 21 21 20 19 18 18 17 17 17 17 16 13 12 14 13 12 12
16 17 18 19 20 22 24 23 24 22 21 22 22 22 21 21 21 16 14 13 13 12 14 15 13 12 12 12 11 11 12 16
17 19 20 21 21 22 22 25 26 25 23 23 21 22 22 22 22 23 19 15 15 14 14 13 13 13 12 12 13 15 16 23
19 21 23 24 23 21 26 27 25 24 23 25 23 23 24 23 22 23 23 24 22 18 16 15 14 13 14 14 18 23 22 23
23 25 25 26 22 23 26 24 24 25 24 24 24 24 22 23 22 23 23 24 23 22 20 19 16 15 16 17 26 24 24 24

GFSFLT1_con_lsi_036.txt.gz
Lid_Strength_Index
15 15 16 16 16 16 16 15 15 15 15 15 15 15 15 15 15 15 15 15 15 15 15 15 15 15 16 16 15 15 16 16
14 14 15 15 16 16 16 15 15 15 15 15 15 14 14 14 15 15 15 15 15 15 15 15 15 15 16 16 16 16 16 16
14 14 15 15 15 15 15 15 15 15 14 14 14 14 15 15 15 15 15 14 14 14 15 15 15 15 16 16 16 16 16 16
14 15 15 15 15 15 14 14 14 14 14 14 14 14 14 14 14 14 15 15 15 15 15 15 15 15 15 15 15 15 15 15
15 15 14 14 15 15 14 14 13 13 14 14 14 14 14 14 15 15 15 15 16 16 16 16 16 15 15 14 14 14 14 14
14 14 14 14 14 14 14 14 14 14 14 14 14 14 15 15 16 16 16 16 16 16 16 15 15 14 13 13 13 14 14 13
13 12 12 12 13 13 14 13 13 14 14 14 15 15 16 17 16 16 16 16 16 15 16 16 15 13 12 12 13 14 14 15
13 12 12 12 11 13 13 13 15 15 17 17 17 17 17 17 16 16 17 16 17 17 16 17 16 13 12 12 14 14 15 15
12 13 12 12 12 13 13 14 15 16 17 17 17 18 17 17 17 17 17 17 18 18 18 17 17 14 13 13 14 15 16 16
12 13 13 13 13 13 14 14 15 16 16 16 17 18 18 20 19 18 19 19 19 17 19 19 19 15 14 14 15 16 16 16
12 13 13 13 13 14 15 16 16 15 14 16 17 20 21 19 20 20 21 19 18 19 19 19 20 16 14 13 15 17 16 15
13 12 12 13 14 14 15 15 15 15 16 17 18 20 21 21 21 23 23 20 22 21 20 20 19 19 14 12 13 15 15 15
12 13 12 14 14 14 14 15 17 17 18 19 21 21 19 26 24 25 25 25 24 23 22 19 18 15 13 12 11 11 14 15
12 13 13 15 13 14 15 17 18 20 21 22 21 20 20 25 23 23 25 25 23 21 21 20 17 16 13 11 11 10 12 12
15 15 14 16 15 16 17 18 21 24 21 21 23 21 21 20 20 24 24 23 22 21 21 19 16 15 15 14 12 11 12 11
13 13 13 16 17 19 19 20 22 23 21 20 20 21 21 20 21 20 20 19 21 18 16 16 16 15 11 11 12 12 12 14
15 15 17 17 19 21 20 21 22 21 20 20 20 20 20 21 21 16 13 12 11 11 12 14 12 11 11 10 11 12 13 20
17 18 19 20 20 22 22 24 24 22 20 20 20 20 21 21 22 23 19 14 13 13 13 12 12 12 11 11 12 15 17 27
19 19 20 19 20 21 22 24 24 23 21 22 21 22 22 23 23 23 23 24 22 17 15 14 13 13 12 13 18 24 24 31
20 20 22 24 23 23 25 24 23 22 22 22 22 22 22 22 22 23 23 23 24 22 19 19 16 15 16 17 29 26 25 24

GFSFLT1_con_lsi_042.txt.gz
Lid_Strength_Index
13 14 14 14 14 14 14 14 13 13 13 13 13 12 12 12 12 12 13 13 13 13 12 12 12 12 12 12 11 12 11 11
13 13 14 13 13 13 13 13 13 13 13 13 12 12 12 12 12 12 12 13 13 13 13 13 12 12 12 12 12 12 12 11
12 12 13 14 14 13 13 13 13 12 12 12 12 12 12 12 12 12 13 12 13 13 13 13 13 13 13 13 12 13 13 13
12 12 12 13 13 13 13 13 12 13 12 12 12 12 12 12 12 12 12 13 13 13 14 14 14 13 13 13 13 13 13 13
12 11 11 12 13 13 13 13 13 13 13 12 12 12 12 12 12 12 13 13 13 13 14 14 14 14 14 13 13 12 12 12
11 11 11 11 12 12 13 13 13 13 13 12 12 11 11 12 13 13 13 14 14 14 14 14 14 14 13 12 12 12 12 11
10 10 11 12 12 12 12 13 12 12 12 11 10 11 12 13 13 14 14 14 15 15 15 15 14 13 12 11 11 11 12 12
10 10 11 11 11 12 12 12 12 12 11 11 11 12 12 13 14 14 14 14 15 14 14 14 13 13 11 11 11 11 12 12
10 10 10 11 11 11 11 11 12 11 11 11 11 12 13 14 15 14 14 14 14 14 14 14 13 13 12 11 11 12 12 12
10 10 11 11 10 11 12 11 11 11 11 11 12 13 14 15 14 14 14 14 14 14 14 15 14 14 12 11 11 12 12 12
12 12 11 11 11 11 11 11 11 10 11 11 12 13 14 14 14 13 14 14 14 14 14 15 16 14 13 11 11 12 11 11
13 13 12 12 12 12 11 12 10 10 11 12 13 14 14 14 14 15 15 15 15 16 15 15 15 14 12 11 11 11 11 10
13 13 12 12 12 11 12 10 11 12 13 14 15 15 15 16 16 16 16 16 16 16 15 14 14 13 12 10 9 9 10 11
12 13 12 12 11 11 10 12 14 14 15 15 16 16 16 16 16 15 15 15 14 14 14 13 13 12 11 10 10 9 10 9
13 13 12 12 12 10 13 14 15 15 16 16 17 16 17 15 15 15 14 14 14 14 14 13 13 12 11 10 10 9 8 9
13 12 11 11 11 12 14 15 14 15 16 15 15 16 15 15 14 14 13 13 14 14 14 14 13 11 10 9 8 8 8 11
13 12 11 13 13 15 16 15 15 15 15 14 14 15 14 14 14 12 11 11 10 9 10 10 10 8 8 8 7 7 9 12
12 13 14 15 15 17 17 16 16 13 14 14 15 14 14 14 14 14 13 12 11 10 10 9 8 8 8 7 7 10 12 15
16 17 17 18 18 18 18 17 17 16 16 14 14 14 14 15 15 15 15 15 15 14 13 12 10 9 9 8 9 14 15 17
20 20 20 20 21 20 20 19 18 17 16 16 15 15 16 16 16 16 16 17 17 17 15 14 12 11 10 11 14 16 17 17

GFSFLT1_con_lsi_045.txt.gz
Lid_Strength_Index
13 13 13 13 13 13 13 13 13 13 12 12 12 12 12 12 12 12 13 13 13 13 13 13 13 13 12 12 11 11 10 11
12 13 13 13 13 14 13 13 13 13 12 12 12 12 12 12 12 12 13 13 13 14 14 14 14 13 13 12 12 12 11 11
12 13 13 13 14 14 13 13 13 13 12 12 12 12 12 13 12 12 13 13 14 14 14 14 13 13 13 13 12 12 12 12
12 13 14 13 13 13 13 13 13 13 12 12 13 12 12 12 12 13 13 14 14 14 14 14 13 13 13 13 13 12 12 12
12 12 13 13 13 13 13 13 13 13 12 12 12 12 12 12 13 13 13 14 14 14 14 14 14 14 13 13 12 12 11 11
12 11 12 12 13 13 13 13 12 13 13 12 12 12 12 12 13 14 14 14 14 14 14 14 14 14 13 12 12 11 11 11
11 11 11 11 12 12 13 13 12 13 13 12 12 12 13 13 14 14 14 14 14 14 14 14 14 13 13 11 11 11 11 11
11 11 11 11 11 12 12 12 13 13 13 13 12 13 14 14 14 14 14 14 14 14 14 14 13 12 12 11 11 11 11 11
10 10 10 10 11 11 12 13 13 13 13 13 13 13 13 13 13 13 13 14 14 14 14 14 13 12 11 11 11 11 11 11
10 10 10 11 11 12 13 13 13 13 13 13 13 13 13 13 14 13 13 14 14 14 14 14 13 12 11 11 11 11 11 10
11 11 12 12 12 13 14 14 14 13 12 12 12 12 13 13 13 13 13 13 14 14 13 14 14 12 11 11 11 11 11 10
13 13 12 13 13 13 13 13 12 12 12 12 11 12 12 12 13 14 15 14 15 14 14 14 14 14 11 10 11 11 11 10
14 14 14 13 13 13 13 11 12 12 12 13 13 12 13 14 15 15 15 16 16 15 14 13 13 12 11 10 9 9 10 10
14 14 14 13 13 13 12 12 13 13 14 14 14 14 15 16 15 16 16 15 14 13 13 12 11 12 10 9 8 8 9 9
14 14 14 14 13 12 13 14 14 14 15 15 16 15 16 15 14 14 14 14 13 12 12 12 11 11 10 10 10 8 8 8
14 13 13 12 12 12 14 15 14 13 14 14 15 15 15 15 13 13 12 11 12 11 11 12 12 11 9 9 9 8 8 9
14 14 13 13 14 14 15 14 13 14 14 13 14 14 14 13 14 11 10 10 9 9 11 12 10 8 8 7 7 6 8 11
14 14 14 15 15 17 17 17 16 13 13 13 14 13 13 13 13 13 11 9 9 8 8 7 7 7 7 7 7 7 11 14
15 17 17 18 20 19 18 17 18 15 17 13 14 13 13 13 13 13 14 14 13 11 11 10 9 9 8 8 8 12 13 15
19 20 20 21 22 21 20 19 18 16 15 15 15 15 15 15 14 15 15 15 15 15 14 13 11 10 9 8 11 13 15 15

GFSFLT1_con_lsi_048.txt.gz
Lid_Strength_Index
14 15 15 16 16 16 15 15 15 15 15 15 15 15 15 15 16 16 16 16 16 16 16 16 16 16 16 16 16 16 16 15
14 15 15 15 16 16 16 16 16 15 15 16 15 15 15 16 16 16 16 16 16 16 16 16 16 17 17 17 17 17 16 15
14 15 15 16 16 16 16 16 16 15 16 15 15 15 16 16 16 16 16 16 17 16 17 17 17 17 17 17 17 16 15 15
14 15 15 16 16 16 16 16 16 15 16 16 16 16 16 16 16 16 17 17 17 17 17 17 17 17 17 16 16 16 15 14
14 15 15 15 16 16 16 16 15 16 16 17 16 16 16 16 16 17 17 17 18 17 17 17 17 17 16 15 15 15 14 14
14 15 15 16 16 16 16 16 16 16 16 16 16 16 16 16 17 17 17 17 17 17 18 17 17 16 16 14 14 14 14 14
14 14 15 15 16 16 16 16 16 16 16 16 16 16 16 17 17 17 17 17 17 18 17 17 16 14 13 13 14 13 13 13
13 13 14 15 15 15 15 16 16 16 16 16 16 15 16 16 17 17 18 18 18 17 17 17 16 12 12 12 13 13 13 12
12 12 13 13 14 14 15 16 16 16 15 16 15 15 16 17 17 17 17 17 17 17 16 16 15 12 12 12 13 13 12 12
11 12 12 13 13 14 15 15 15 15 15 14 15 15 16 16 17 16 17 17 17 17 17 17 16 12 11 12 13 12 12 11
12 13 12 13 14 14 15 15 15 15 14 14 14 15 15 15 16 16 17 16 16 16 17 17 18 12 11 11 12 15 13 11
13 13 14 14 15 15 16 15 14 15 15 15 15 14 14 15 17 16 17 16 17 17 17 17 17 16 11 10 11 12 13 12
15 15 15 15 15 16 16 14 16 16 15 15 14 14 15 16 19 18 17 18 19 19 19 17 15 13 11 9 8 8 11 12
16 16 16 16 15 16 16 16 17 16 16 17 17 16 16 17 18 19 19 18 18 18 18 17 14 14 10 9 8 7 8 9
16 17 17 19 17 17 16 17 17 17 18 18 18 19 19 17 17 17 18 18 17 17 16 17 15 14 13 12 12 9 9 8
16 17 17 18 18 19 18 18 18 18 18 19 19 19 19 18 17 17 18 16 19 18 18 18 16 14 11 12 15 14 11 11
18 18 19 19 20 21 20 19 18 19 19 18 18 19 19 19 20 13 12 11 10 9 13 17 10 9 8 7 7 6 6 10
19 19 19 19 21 23 23 21 21 19 18 18 18 19 20 20 20 21 16 10 9 8 8 7 7 7 6 6 6 5 6 17
19 21 21 23 25 25 25 22 21 22 20 20 21 21 21 21 20 20 21 19 18 13 11 10 9 8 8 7 7 9 10 22
22 23 24 25 27 27 26 23 23 21 22 22 21 22 21 20 20 20 19 22 24 23 16 15 11 10 10 9 11 11 12 16